Home > Weather > Cairns > Past weeks

Flag for Australia Weather for the Past 2 Weeks in Cairns, Queensland, Australia

Now
77 °F

Passing clouds.


Feels Like: 78 °F
Forecast: 75 / 86 °F
Wind: 6 mph from South

Location: Cairns Airport

Current Time: May 5, 2016 at 9:18:26 PM

Latest Report: May 5, 2016 at 9:00 PM


Visibility: N/A

Pressure: 29.98 "Hg

Humidity: 83%

Dew Point: 72 °F

Location of CairnsLocation

Historic Weather in Cairns — Graph

°F

Cairns Temperature Yesterday

Maximum temperature yesterday: 86 °F (at 11:00 AM)
Minimum temperature yesterday: 72 °F (at 5:00 AM)
Average temperature yesterday: 79 °F

High & Low Weather Summary for the Past Weeks

 TemperatureHumidityPressure
High88 °F (May 2, 1:00 PM)100% (Apr 26, 8:00 AM)30.04 "Hg (Apr 26, 8:00 AM)
Low72 °F (Apr 25, 11:00 PM)55% (Apr 24, 3:00 PM)29.86 "Hg (Apr 23, 3:00 PM)
Average78 °F81%29.94 "Hg
* Reported Apr 20 8:00 PM — May 5 8:00 PM, Cairns, Weather by CustomWeather, © 2016

Note: Actual official high and low records may vary slightly from our data, if they occured in-between our weather recording intervals... More about our weather records

Advertising

Cairns Weather History for the Previous 24 Hours

Scroll right to see more
 ConditionsComfort  
Time TempWeatherWind HumidityBarometerVisibility
8:00 PM
Thu, May 5
79 °FPassing clouds.7 mph79%29.98 "HgN/A
7:00 PM79 °FPassing clouds.7 mph79%29.95 "HgN/A
6:30 PM79 °FPassing clouds.7 mph79%29.95 "HgN/A
6:00 PM79 °FPassing clouds.7 mph79%29.92 "HgN/A
5:30 PM81 °FPassing clouds.13 mph74%29.92 "HgN/A
5:00 PM82 °FPassing clouds.13 mph66%29.92 "HgN/A
4:30 PM84 °FPassing clouds.13 mph66%29.92 "HgN/A
4:00 PM84 °FPassing clouds.15 mph62%29.89 "HgN/A
3:30 PM86 °FPassing clouds.16 mph62%29.89 "HgN/A
3:00 PM86 °FPassing clouds.13 mph62%29.89 "HgN/A
2:30 PM86 °FPassing clouds.10 mph66%29.89 "HgN/A
2:00 PM84 °FScattered clouds.12 mph66%29.89 "HgN/A
1:30 PM84 °FScattered clouds.14 mph66%29.92 "HgN/A
1:00 PM86 °FScattered clouds.12 mph66%29.92 "HgN/A
12:30 PM86 °FScattered clouds.12 mph62%29.95 "HgN/A
12:00 PM84 °FScattered clouds.13 mph62%29.95 "HgN/A
11:00 AM82 °FScattered clouds.8 mph74%29.98 "HgN/A
10:30 AM82 °FScattered clouds.10 mph74%29.98 "HgN/A
10:00 AM82 °FScattered clouds.8 mph74%30.01 "HgN/A
9:30 AM81 °FScattered clouds.8 mph79%30.01 "HgN/A
9:00 AM81 °FScattered clouds.12 mph74%29.98 "HgN/A
8:00 AM77 °FBroken clouds.9 mph83%29.98 "HgN/A
7:30 AM79 °FPassing clouds.8 mph74%29.95 "HgN/A
7:00 AM73 °FPassing clouds.10 mph89%29.95 "HgN/A
6:30 AM73 °FPassing clouds.10 mph89%29.95 "HgN/A
6:00 AM73 °FPassing clouds.9 mph89%29.95 "HgN/A
5:30 AM77 °FPassing clouds.5 mph83%29.92 "HgN/A
5:00 AM75 °FPassing clouds.9 mph83%29.92 "HgN/A
4:30 AM73 °FPassing clouds.10 mph89%29.92 "HgN/A
4:00 AM75 °FPassing clouds.8 mph83%29.92 "HgN/A
3:30 AM75 °FPassing clouds.8 mph83%29.92 "HgN/A
3:00 AM77 °FPassing clouds.8 mph83%29.92 "HgN/A
2:30 AM77 °FPassing clouds.8 mph83%29.95 "HgN/A
2:00 AM77 °FPartly cloudy.9 mph83%29.95 "HgN/A
1:30 AM77 °FPassing clouds.7 mph83%29.95 "HgN/A
1:00 AM77 °FPassing clouds.8 mph83%29.95 "HgN/A
12:30 AM77 °FPassing clouds.8 mph83%29.95 "HgN/A
12:00 AM77 °FPassing clouds.8 mph83%29.95 "HgN/A
11:30 PM
Wed, May 4
77 °FPassing clouds.8 mph83%29.95 "HgN/A
11:00 PM77 °FPassing clouds.8 mph83%29.98 "HgN/A
10:30 PM77 °FPassing clouds.7 mph83%29.98 "HgN/A
10:00 PM77 °FPassing clouds.7 mph83%29.98 "HgN/A
9:30 PM77 °FPassing clouds.7 mph83%29.98 "HgN/A
9:00 PM77 °FPassing clouds.7 mph83%29.98 "HgN/A
Weather by CustomWeather, © 2016

See weather overviewHow to use our weather pages